sat.trackr.live / text

‹ back to catalog

STARLINK-37928

NORAD 69955 · 2026-157N

PAYLOAD ACTIVE UNKNOWN

§ Identity

Operator
Country
US
Launch date
2026-07-09
Launch site
AFETR
Launch vehicle
Mass (kg)
RCS (m²)

Purposes: comms

External: N2YO · Heavens-Above · Gunter

§ Orbital elements

Epoch: 2026-09-19T16:57:17.440704Z

Period
93.85 min
Inclination
53.1580°
Eccentricity
0.0001568
Mean motion
15.34422189 rev/d
Perigee alt
461.6 km
Apogee alt
463.7 km
Semi-major
6,840.8 km
B*
6.7663e-4
RAAN
337.2335°
Arg perigee
60.6150°
Mean anomaly
299.5009°
Rev number
1,125

§ Raw data

STARLINK-379281 69955U 26157N   26262.70645186  .00022570  00000+0  67663-3 0  99962 69955  53.1580 337.2335 0001568  60.6150 299.5009 15.34422189 11254

JSON: /api/v1/satellites/69955 · /tle

For live sub-satellite position, see the globe view (requires WebGL).

§ Visibility from observer

Set your observer location to see the next 7 days of passes ≥ 10°. The values pass through the URL so the page stays shareable.

No JS? Fill the form by hand. The geolocation button needs JavaScript.